CAPE
nan nan nan nan nan nan nan nan nan nan nan nan nan nan nan nan nan nan nan nan nan nan nan nan nan nan nan 1 3 3 6 7 7 7 6 5 3 3 2 1 1 0 nan nan nan nan nan nan nan nan nan nan nan nan nan nan nan nan nan 0 0 2 4 8 8 11 14 15 13 13 9 8 5 5 3 4 5 5 8 9 9 9 11 12 12 12
nan nan nan nan nan nan nan nan nan nan nan nan nan nan nan nan nan nan nan nan nan nan nan nan nan nan nan nan 3 3 4 6 6 6 5 4 3 3 1 0 0 nan nan nan nan nan nan nan nan nan nan nan nan nan nan nan nan nan nan nan nan nan 0 2 2 4 6 8 8 8 6 3 2 2 2 4 6 6 9 11 11 12 12 12 12 13
nan nan nan nan nan nan nan nan nan nan nan nan nan nan nan nan nan nan nan nan nan nan nan nan nan nan nan nan 2 2 3 3 4 4 3 2 1 1 0 nan nan nan nan nan nan nan nan nan nan nan nan nan nan nan nan nan nan nan nan nan nan nan nan nan nan 0 0 1 1 1 nan nan 0 0 1 3 6 6 10 11 11 10 9 10 10 10
nan nan nan nan nan nan nan nan nan nan nan nan nan nan nan nan nan nan nan nan nan nan nan nan nan nan nan nan nan nan 1 1 1 1 0 0 nan nan nan nan nan nan nan nan nan nan nan nan nan nan nan nan nan nan nan nan nan nan nan nan nan nan nan nan nan nan nan nan nan nan nan nan nan nan nan 1 6 6 6 6 6 5 6 7 7 8
nan nan nan nan nan nan nan nan nan nan nan nan nan nan nan nan nan nan nan nan nan nan nan nan nan nan nan nan nan nan nan nan nan nan nan nan nan nan nan nan nan nan nan nan nan nan nan nan nan nan nan nan nan nan nan nan nan nan nan nan nan nan nan nan nan nan nan nan nan nan nan nan nan nan nan 0 2 2 3 4 4 4 4 5 5 6
nan nan nan nan nan nan nan nan nan nan nan nan nan nan nan nan nan nan nan nan nan nan nan nan nan nan nan nan nan nan nan nan nan nan nan nan nan nan nan nan nan nan nan nan nan nan nan nan nan nan nan nan nan nan nan nan nan nan nan nan nan nan nan nan nan nan nan nan nan nan nan nan nan nan nan nan 0 0 2 3 3 4 5 4 4 5
nan nan nan nan nan nan nan nan nan nan nan nan nan nan nan nan nan nan nan nan nan nan nan nan nan nan nan nan nan nan nan nan nan nan nan nan nan nan nan nan nan nan nan nan nan nan nan nan nan nan nan nan nan nan nan nan nan nan nan nan nan nan nan nan nan nan nan nan nan nan nan nan nan nan nan nan nan nan 1 3 3 5 5 5 5 4
nan nan nan nan nan nan nan nan nan nan nan nan nan nan nan nan nan nan nan nan nan nan nan nan nan nan nan nan nan nan nan nan nan nan nan nan nan nan nan nan nan nan nan nan nan nan nan nan nan nan nan nan nan nan nan nan nan nan nan nan nan nan nan nan nan nan nan nan nan nan 1 1 2 2 1 0 0 0 1 2 2 4 6 7 7 7
nan nan nan nan nan nan nan nan nan nan nan nan nan nan nan nan nan nan nan nan nan nan nan nan nan nan nan nan nan nan nan nan nan nan nan nan nan nan nan nan nan nan nan nan nan nan nan nan nan nan nan nan nan nan nan nan nan nan nan nan nan nan nan nan nan nan nan nan nan nan 0 2 3 3 2 2 1 1 1 2 2 3 5 7 7 8
nan nan nan nan nan nan nan nan nan nan nan nan nan nan nan nan nan nan nan nan nan nan nan nan nan nan nan nan nan nan nan nan nan nan nan nan nan nan nan nan nan nan nan nan nan nan nan nan nan nan nan nan nan nan nan nan nan nan nan nan nan nan nan nan nan nan nan nan nan nan nan 0 1 1 1 1 1 1 2 2 2 3 4 6 6 8
nan nan nan nan nan nan nan nan nan nan nan nan nan nan nan nan nan nan nan nan nan nan nan nan nan nan nan nan nan nan nan nan nan nan nan nan nan nan nan nan nan nan nan nan nan nan nan nan nan nan nan nan nan nan nan nan nan nan nan nan nan nan nan nan nan nan nan nan nan nan nan nan nan nan 0 1 1 1 2 3 3 3 3 6 6 9
nan nan nan nan nan nan nan nan nan nan nan nan nan nan nan nan nan nan nan nan nan nan nan nan nan nan nan nan nan nan nan nan nan nan nan nan nan nan nan nan nan nan nan nan nan nan nan nan nan nan nan nan nan nan nan nan nan nan nan 0 0 0 1 1 1 1 0 0 nan nan nan nan 0 0 0 1 2 2 2 3 3 3 4 7 7 11
nan nan nan nan nan nan nan nan nan nan nan nan nan nan nan nan nan nan nan nan nan nan nan nan nan nan nan nan nan nan nan nan nan nan nan nan nan nan nan nan nan nan nan nan nan nan nan nan nan nan nan nan nan nan nan nan nan nan nan nan nan 0 0 1 1 2 2 2 2 2 3 3 2 2 2 2 3 3 3 3 3 5 6 10 10 13
nan nan nan nan nan nan nan nan nan nan nan nan nan nan nan nan nan nan nan nan nan nan nan nan nan nan nan nan nan nan nan nan nan nan nan nan nan nan nan nan nan nan nan nan nan nan nan nan nan nan nan nan nan nan nan nan nan nan 0 0 0 0 0 1 1 1 2 3 4 4 4 5 3 3 3 3 3 3 4 5 5 8 10 12 12 14
nan nan nan nan nan nan nan nan nan nan nan nan nan nan nan nan nan nan nan nan nan nan nan nan nan nan nan nan nan nan nan nan nan nan nan nan nan nan nan nan nan nan nan nan nan nan nan nan nan nan nan nan nan nan nan 1 1 1 1 1 1 1 1 1 1 2 2 2 3 3 5 6 5 5 4 4 5 5 5 6 6 10 12 14 14 14
nan nan nan nan nan nan nan nan nan nan nan nan nan nan nan nan nan nan nan nan nan nan nan nan nan nan nan nan nan nan nan nan nan nan nan nan nan nan nan nan nan nan nan nan nan nan nan nan nan nan nan nan nan nan nan 1 1 1 2 2 2 2 2 2 2 2 2 2 3 3 4 5 6 6 5 4 5 5 6 8 8 9 11 13 13 15
nan nan nan nan nan nan nan nan nan nan nan nan nan nan nan nan nan nan nan nan nan nan nan nan nan nan nan nan nan nan nan nan nan nan nan nan nan nan nan nan nan nan nan nan nan nan nan nan nan nan nan nan 0 0 nan nan nan 1 2 2 2 2 2 3 3 3 2 3 3 3 3 5 5 5 6 5 5 5 6 7 7 10 12 13 13 15
nan nan nan nan nan nan nan nan nan nan nan nan nan nan nan nan nan nan nan nan nan nan nan nan nan nan nan nan nan nan nan nan nan nan nan nan nan nan nan nan nan nan nan nan nan nan nan nan nan nan nan nan nan nan nan nan nan 1 1 1 1 1 2 3 3 3 2 3 3 3 4 4 5 5 7 6 5 5 6 7 7 9 11 12 12 14
nan nan nan nan nan nan nan nan nan nan nan nan nan nan nan nan nan nan nan nan nan nan nan nan nan nan nan nan nan nan nan nan nan nan nan nan nan nan nan nan nan nan nan nan nan nan nan nan nan nan nan nan nan nan nan nan nan 1 1 1 1 2 3 3 3 3 3 3 3 3 4 4 5 5 7 7 7 7 6 7 7 8 10 12 12 14
nan nan nan nan nan nan nan nan nan nan nan nan nan nan nan nan nan nan nan nan nan nan nan nan nan nan nan nan nan nan nan nan nan nan nan nan nan nan nan nan nan nan nan nan nan nan nan nan nan nan nan nan nan nan nan nan nan 0 0 1 1 3 4 5 5 5 4 4 4 4 4 4 4 4 5 7 8 8 8 7 7 8 9 11 11 15
nan nan nan nan nan nan nan nan nan nan nan nan nan nan nan nan nan nan nan nan nan nan nan nan nan nan nan nan nan nan nan nan nan nan nan nan nan nan nan nan nan nan nan nan nan nan nan nan nan nan nan nan nan nan nan nan nan nan nan 1 1 3 5 6 6 6 7 8 7 7 7 5 5 5 6 6 7 7 8 7 7 7 9 11 11 13
nan nan nan nan nan nan nan nan nan nan nan nan nan nan nan nan nan nan nan nan nan nan nan nan nan nan nan nan nan nan nan nan nan nan nan nan nan nan nan nan nan nan nan nan nan nan nan nan nan nan nan nan nan nan nan nan nan nan nan 1 1 2 3 4 4 6 7 8 8 8 10 8 8 8 8 7 8 8 8 7 7 7 9 10 10 11
nan nan nan nan nan nan nan nan nan nan nan nan nan nan nan nan nan nan nan nan nan nan nan nan nan nan nan nan nan nan nan nan nan nan nan nan nan nan nan nan nan nan nan nan nan nan nan nan nan nan nan nan nan nan nan nan nan nan nan 0 0 1 2 3 3 4 5 6 8 8 9 10 11 11 10 11 11 11 10 10 10 10 10 11 11 12
nan nan nan nan nan nan nan nan nan nan nan nan nan nan nan nan nan nan nan nan nan nan nan nan nan nan nan nan nan nan nan nan nan nan nan nan nan nan nan nan nan nan nan nan nan nan nan nan nan nan nan nan nan nan nan nan nan nan nan 0 0 1 2 2 2 2 3 4 6 6 8 10 12 12 13 15 13 13 12 12 12 10 10 12 12 12
nan nan nan nan nan nan nan nan nan nan nan nan nan nan nan nan nan nan nan nan nan nan nan nan nan nan nan nan nan nan nan nan nan nan nan nan nan nan nan nan nan nan nan nan nan nan nan nan nan nan nan nan nan nan nan nan nan nan 0 1 1 1 2 2 2 3 2 2 2 2 4 6 9 9 12 13 15 15 15 13 13 12 12 12 12 13
nan nan nan nan nan nan nan nan nan nan nan nan nan nan nan nan nan nan nan nan nan nan nan nan nan nan nan nan nan nan nan nan nan nan nan nan nan nan nan nan nan nan nan nan nan nan nan nan nan nan nan nan nan nan nan nan nan nan 0 1 1 1 1 2 2 2 3 3 3 3 3 4 6 6 7 9 12 12 14 13 13 13 13 13 13 12
nan nan nan nan nan nan nan nan nan nan nan nan nan nan nan nan nan nan nan nan nan nan nan nan nan nan nan nan nan nan nan nan nan nan nan nan nan nan nan nan nan nan nan nan nan nan nan nan nan nan nan nan nan nan nan nan nan nan 0 0 0 0 0 0 0 1 2 3 3 3 3 4 5 5 6 8 9 9 9 11 11 12 12 13 13 13
0 0 0 0 0 0 0 0 nan nan nan nan nan nan nan nan nan nan nan nan nan nan nan nan nan nan nan nan nan nan nan nan nan nan nan nan nan nan nan nan nan nan nan nan nan nan nan nan nan nan nan nan nan nan nan nan nan nan nan nan nan 0 0 0 0 0 1 2 3 3 3 4 4 4 5 5 7 7 8 9 9 10 11 5 5 nan
0 0 nan nan nan nan nan nan nan nan nan nan 1 1 nan nan nan nan nan nan nan nan nan nan nan nan nan nan nan nan nan nan nan nan nan nan nan nan nan nan nan nan nan nan nan nan nan nan nan nan nan nan nan nan nan nan nan nan nan nan nan nan nan nan nan 0 1 2 3 3 4 5 5 5 5 5 6 6 7 8 8 8 5 nan nan nan
nan nan nan nan nan nan nan nan nan nan nan nan nan nan nan nan nan nan nan nan nan nan nan nan nan nan nan nan nan nan nan nan nan nan nan nan nan nan nan nan nan nan nan nan nan nan nan nan nan nan nan nan nan nan nan nan nan nan nan nan nan nan nan 0 0 0 1 1 2 2 3 4 5 5 5 5 6 6 7 8 8 6 nan nan nan nan
nan nan nan nan nan nan nan nan nan nan nan nan nan nan nan nan nan nan nan nan nan nan nan nan nan nan nan nan nan nan nan nan nan nan nan nan nan nan nan nan nan nan nan nan nan nan nan nan nan nan nan nan nan nan nan nan nan nan nan nan nan nan nan 0 0 0 0 0 1 1 2 4 5 5 5 6 6 6 6 7 7 6 nan nan nan nan
nan nan nan nan nan nan nan nan nan nan nan nan nan nan nan nan nan nan nan nan nan nan nan nan nan nan nan nan nan nan nan nan nan nan nan nan nan nan nan nan nan nan nan nan nan nan nan nan nan nan nan nan nan nan nan nan nan nan nan nan nan nan nan nan nan nan nan nan nan nan 0 2 3 3 3 4 5 5 5 5 5 5 nan nan nan nan
nan nan nan nan nan nan nan nan nan nan nan nan nan nan nan nan nan nan nan nan nan nan nan nan nan nan nan nan nan nan nan nan nan nan nan nan nan nan nan nan nan nan nan nan nan nan nan nan nan nan nan nan nan nan nan nan nan nan nan nan nan nan nan nan nan nan nan nan nan nan nan nan 0 0 2 4 5 5 5 6 6 7 0 nan nan nan
nan nan nan nan nan nan nan nan nan nan nan nan nan nan nan nan nan nan nan nan nan nan nan nan nan nan nan nan nan nan nan nan nan nan nan nan nan nan nan nan nan nan nan nan nan nan nan nan nan nan nan nan nan nan nan nan nan nan nan nan nan nan nan nan nan nan nan nan nan nan nan nan nan nan nan 0 5 5 7 7 7 9 10 nan nan nan
nan nan nan nan nan nan nan nan nan nan nan nan nan nan nan nan nan nan nan nan nan nan nan nan nan nan nan nan nan nan nan nan nan nan nan nan nan nan nan nan nan nan nan nan nan nan nan nan nan nan nan nan nan nan nan nan nan nan nan nan nan nan nan nan nan nan nan nan nan nan nan nan nan nan nan nan 3 3 9 10 10 10 10 12 12 1
nan nan nan nan nan nan nan nan nan nan nan nan nan nan nan nan nan nan nan nan nan nan nan nan nan nan nan nan nan nan nan nan nan nan nan nan nan nan nan nan nan nan nan nan nan nan nan nan nan nan nan nan nan nan nan nan nan nan nan nan nan nan nan nan nan nan nan nan nan nan nan nan nan nan nan nan 2 2 5 9 9 9 9 8 8 6
nan nan nan nan nan nan nan nan nan nan nan nan nan nan nan nan nan nan nan nan nan nan nan nan nan nan nan nan nan nan nan nan nan nan nan nan nan nan nan nan nan nan nan nan nan nan nan nan nan nan nan nan nan nan nan nan nan nan nan nan nan nan nan nan nan nan nan nan nan nan nan nan nan nan nan nan nan nan nan 1 1 1 6 6 6 4
nan nan nan nan nan nan nan nan nan nan nan nan nan nan nan nan nan nan nan nan nan nan nan nan nan nan nan nan nan nan nan nan nan nan nan nan nan nan nan nan nan nan nan nan nan nan nan nan nan nan nan nan nan nan nan nan nan nan nan nan nan nan nan nan nan nan nan nan nan nan nan nan nan nan nan nan nan nan nan nan nan nan nan nan nan 1
nan nan nan nan nan nan nan nan nan nan nan nan nan nan nan nan nan nan nan nan nan nan nan nan nan nan nan nan nan nan nan nan nan nan nan nan nan nan nan nan nan nan nan nan nan nan nan nan nan nan nan nan nan nan nan nan nan nan nan nan nan nan nan nan nan nan nan nan nan nan nan nan nan nan nan nan nan nan nan nan nan nan nan nan nan nan
nan nan nan nan nan nan nan nan nan nan nan nan nan nan nan nan nan nan nan nan nan nan nan nan nan nan nan nan nan nan nan nan nan nan nan nan nan nan nan nan nan nan nan nan nan nan nan nan nan nan nan nan nan nan nan nan nan nan nan nan nan nan nan nan nan nan nan nan nan nan nan nan nan nan nan nan nan nan nan nan nan nan nan nan nan nan
nan nan nan nan nan nan nan nan nan nan nan nan nan nan nan nan nan nan nan nan nan nan nan nan nan nan nan nan nan nan nan nan nan nan nan nan nan nan nan nan nan nan nan nan nan nan nan nan nan nan nan nan nan nan nan nan nan nan 1 nan nan nan nan nan nan nan nan nan nan nan nan nan nan nan nan nan nan nan nan nan nan nan nan nan nan nan
nan nan nan nan nan nan nan nan nan nan nan nan nan nan nan nan nan nan nan nan nan nan nan nan nan nan nan nan nan nan nan nan nan nan nan nan nan nan nan nan nan nan nan nan nan nan nan nan nan nan nan nan nan nan nan nan nan nan nan nan nan nan nan nan nan nan nan nan nan nan nan nan nan nan nan nan nan nan nan nan nan nan nan nan nan nan
nan nan nan nan nan nan nan nan nan nan nan nan nan nan nan nan nan nan nan nan nan nan nan nan nan nan nan nan nan nan nan nan nan nan nan nan nan nan nan nan nan nan nan nan nan nan nan nan nan nan nan nan nan nan nan nan nan nan nan nan nan nan nan nan nan nan nan nan nan nan nan nan nan nan nan nan nan nan nan nan nan nan nan nan nan nan
nan nan nan nan nan nan nan nan nan nan nan nan nan nan nan nan nan nan nan nan nan nan nan nan nan nan nan nan nan nan nan nan nan nan nan nan nan nan nan nan nan nan nan nan nan nan nan nan nan nan nan nan nan nan nan nan nan nan nan nan nan nan nan nan nan nan nan nan nan nan nan nan nan nan nan nan nan nan nan nan nan nan nan nan nan nan
nan nan nan nan nan nan nan nan nan nan nan nan nan nan nan nan nan nan nan nan nan nan nan nan nan nan nan nan nan nan nan nan nan nan nan nan nan nan nan nan nan nan nan nan nan nan nan nan nan nan nan nan nan nan nan nan nan nan nan nan nan nan nan nan nan nan nan nan nan nan nan nan nan nan nan nan nan nan nan nan nan nan nan nan nan nan
nan nan nan nan nan nan nan nan nan nan nan nan nan nan nan nan nan nan nan nan nan nan nan nan nan nan nan nan nan nan nan nan nan nan nan nan nan nan nan nan nan nan nan nan nan nan nan nan nan nan nan nan nan nan nan nan nan nan nan nan nan nan nan nan nan nan nan nan nan nan nan nan nan nan nan nan nan nan nan nan nan nan nan nan nan nan
nan nan nan nan nan nan nan nan nan nan nan nan nan nan nan nan nan nan nan nan nan nan nan nan nan nan nan nan nan nan nan nan nan nan nan nan nan nan nan nan nan nan nan nan nan nan nan nan nan nan nan nan nan nan nan nan nan nan nan nan nan nan nan nan nan nan nan nan nan nan nan nan nan nan nan nan nan nan nan nan nan nan nan nan nan nan
nan nan nan nan nan nan nan nan nan nan nan nan nan nan nan nan nan nan nan nan nan nan nan nan nan nan nan nan nan nan nan nan nan nan nan nan nan nan nan nan nan nan nan nan nan nan nan nan nan nan nan nan nan nan nan nan nan nan nan nan nan nan nan nan nan nan nan nan nan nan nan nan nan nan nan nan nan nan nan nan nan nan nan nan nan nan
nan nan nan nan nan nan nan nan nan nan nan nan nan nan nan nan nan nan nan nan nan nan nan nan nan nan nan nan nan nan nan nan nan nan nan nan nan nan nan nan nan nan nan nan nan nan nan nan nan nan nan nan nan nan nan nan nan nan nan nan nan nan nan nan nan nan nan nan nan nan nan nan nan nan nan nan nan nan nan nan nan nan nan nan nan nan
nan nan nan nan nan nan nan nan nan nan nan nan nan nan nan nan nan nan nan nan nan nan nan nan nan nan nan nan nan nan nan nan nan nan nan nan nan nan nan nan nan nan nan nan nan nan 0 1 1 4 8 0 nan nan nan nan nan nan nan nan nan nan nan nan nan nan nan nan nan nan nan nan nan nan nan nan nan nan nan nan nan nan nan nan nan nan
nan nan nan nan nan nan nan nan nan nan nan nan nan nan nan nan nan nan nan nan nan nan nan nan nan nan nan nan nan nan nan nan nan nan nan nan nan nan nan nan nan nan nan nan nan nan nan nan nan nan nan 12 0 0 nan nan nan nan nan nan nan nan nan nan nan nan nan nan nan nan nan nan nan nan nan nan nan nan nan nan nan nan nan nan nan nan
CIN
nan nan nan nan nan nan nan nan nan nan nan nan nan nan nan nan nan nan nan nan nan nan nan nan nan nan nan -8 -1 -1 -0 -0 -0 -0 -0 -0 -0 -0 -0 -0 -0 -0 nan nan nan nan nan nan nan nan nan nan nan nan nan nan nan nan nan -0 -0 -0 -0 -0 -0 -0 -0 -0 -0 -0 -0 -0 -0 -0 -0 -0 -0 -0 -0 -0 -0 -0 -0 -0 -0 -0
nan nan nan nan nan nan nan nan nan nan nan nan nan nan nan nan nan nan nan nan nan nan nan nan nan nan nan nan -5 -5 -0 -0 -0 -0 -0 -0 -0 -0 -0 -0 -0 nan nan nan nan nan nan nan nan nan nan nan nan nan nan nan nan nan nan nan nan nan -0 -0 -0 -0 -0 -0 -0 -0 -0 -0 -0 -0 -0 -0 -0 -0 -0 -0 -0 -0 -0 -0 -0 -0
nan nan nan nan nan nan nan nan nan nan nan nan nan nan nan nan nan nan nan nan nan nan nan nan nan nan nan nan -0 -0 -0 -0 -0 -0 -0 -0 -0 -0 -0 nan nan nan nan nan nan nan nan nan nan nan nan nan nan nan nan nan nan nan nan nan nan nan nan nan nan -0 -0 -0 -0 -0 nan nan -1 -1 -0 -0 -0 -0 -0 -0 -0 -0 -0 -0 -0 -0
nan nan nan nan nan nan nan nan nan nan nan nan nan nan nan nan nan nan nan nan nan nan nan nan nan nan nan nan nan nan -0 -0 -0 -0 -0 -0 nan nan nan nan nan nan nan nan nan nan nan nan nan nan nan nan nan nan nan nan nan nan nan nan nan nan nan nan nan nan nan nan nan nan nan nan nan nan nan -0 -0 -0 -0 -0 -0 -0 -0 -0 -0 -0
nan nan nan nan nan nan nan nan nan nan nan nan nan nan nan nan nan nan nan nan nan nan nan nan nan nan nan nan nan nan nan nan nan nan nan nan nan nan nan nan nan nan nan nan nan nan nan nan nan nan nan nan nan nan nan nan nan nan nan nan nan nan nan nan nan nan nan nan nan nan nan nan nan nan nan -0 -0 -0 -0 -0 -0 -0 -0 -0 -0 -0
nan nan nan nan nan nan nan nan nan nan nan nan nan nan nan nan nan nan nan nan nan nan nan nan nan nan nan nan nan nan nan nan nan nan nan nan nan nan nan nan nan nan nan nan nan nan nan nan nan nan nan nan nan nan nan nan nan nan nan nan nan nan nan nan nan nan nan nan nan nan nan nan nan nan nan nan -0 -0 -0 -0 -0 -0 -0 -0 -0 -0
nan nan nan nan nan nan nan nan nan nan nan nan nan nan nan nan nan nan nan nan nan nan nan nan nan nan nan nan nan nan nan nan nan nan nan nan nan nan nan nan nan nan nan nan nan nan nan nan nan nan nan nan nan nan nan nan nan nan nan nan nan nan nan nan nan nan nan nan nan nan nan nan nan nan nan nan nan nan -0 -0 -0 -0 -0 -0 -0 -0
nan nan nan nan nan nan nan nan nan nan nan nan nan nan nan nan nan nan nan nan nan nan nan nan nan nan nan nan nan nan nan nan nan nan nan nan nan nan nan nan nan nan nan nan nan nan nan nan nan nan nan nan nan nan nan nan nan nan nan nan nan nan nan nan nan nan nan nan nan nan -0 -0 -0 -0 -0 -0 -0 -0 -0 -0 -0 -0 -0 -0 -0 -0
nan nan nan nan nan nan nan nan nan nan nan nan nan nan nan nan nan nan nan nan nan nan nan nan nan nan nan nan nan nan nan nan nan nan nan nan nan nan nan nan nan nan nan nan nan nan nan nan nan nan nan nan nan nan nan nan nan nan nan nan nan nan nan nan nan nan nan nan nan nan -0 -0 -0 -0 -0 -0 -0 -0 -0 -0 -0 -0 -0 -0 -0 -0
nan nan nan nan nan nan nan nan nan nan nan nan nan nan nan nan nan nan nan nan nan nan nan nan nan nan nan nan nan nan nan nan nan nan nan nan nan nan nan nan nan nan nan nan nan nan nan nan nan nan nan nan nan nan nan nan nan nan nan nan nan nan nan nan nan nan nan nan nan nan nan -0 -0 -0 -0 -0 -0 -0 -0 -0 -0 -0 -0 -0 -0 -0
nan nan nan nan nan nan nan nan nan nan nan nan nan nan nan nan nan nan nan nan nan nan nan nan nan nan nan nan nan nan nan nan nan nan nan nan nan nan nan nan nan nan nan nan nan nan nan nan nan nan nan nan nan nan nan nan nan nan nan nan nan nan nan nan nan nan nan nan nan nan nan nan nan nan -0 -0 -0 -0 -0 -0 -0 -0 -0 -0 -0 -0
nan nan nan nan nan nan nan nan nan nan nan nan nan nan nan nan nan nan nan nan nan nan nan nan nan nan nan nan nan nan nan nan nan nan nan nan nan nan nan nan nan nan nan nan nan nan nan nan nan nan nan nan nan nan nan nan nan nan nan -0 -0 -0 -0 -0 -0 -0 -0 -0 nan nan nan nan -0 -0 -0 -0 -0 -0 -0 -0 -0 -0 -0 -0 -0 -0
nan nan nan nan nan nan nan nan nan nan nan nan nan nan nan nan nan nan nan nan nan nan nan nan nan nan nan nan nan nan nan nan nan nan nan nan nan nan nan nan nan nan nan nan nan nan nan nan nan nan nan nan nan nan nan nan nan nan nan nan nan -0 -0 -0 -0 -0 -0 -0 -0 -0 -0 -0 -0 -0 -0 -0 -0 -0 -0 -0 -0 -0 -0 -0 -0 -0
nan nan nan nan nan nan nan nan nan nan nan nan nan nan nan nan nan nan nan nan nan nan nan nan nan nan nan nan nan nan nan nan nan nan nan nan nan nan nan nan nan nan nan nan nan nan nan nan nan nan nan nan nan nan nan nan nan nan -0 -0 -0 -0 -0 -0 -0 -0 -0 -0 -0 -0 -0 -0 -0 -0 -0 -0 -0 -0 -0 -0 -0 -0 -0 -0 -0 -0
nan nan nan nan nan nan nan nan nan nan nan nan nan nan nan nan nan nan nan nan nan nan nan nan nan nan nan nan nan nan nan nan nan nan nan nan nan nan nan nan nan nan nan nan nan nan nan nan nan nan nan nan nan nan nan -17 -17 -0 -0 -0 -0 -0 -0 -0 -0 -0 -0 -0 -0 -0 -0 -0 -0 -0 -0 -0 -0 -0 -0 -0 -0 -0 -0 -0 -0 -0
nan nan nan nan nan nan nan nan nan nan nan nan nan nan nan nan nan nan nan nan nan nan nan nan nan nan nan nan nan nan nan nan nan nan nan nan nan nan nan nan nan nan nan nan nan nan nan nan nan nan nan nan nan nan nan -3 -3 -0 -0 -0 -0 -0 -0 -0 -0 -0 -0 -0 -0 -0 -0 -0 -0 -0 -0 -0 -0 -0 -0 -0 -0 -0 -0 -0 -0 -0
nan nan nan nan nan nan nan nan nan nan nan nan nan nan nan nan nan nan nan nan nan nan nan nan nan nan nan nan nan nan nan nan nan nan nan nan nan nan nan nan nan nan nan nan nan nan nan nan nan nan nan nan -0 -0 nan nan nan -0 -0 -0 -0 -0 -0 -0 -0 -0 -0 -0 -0 -0 -0 -0 -0 -0 -0 -0 -0 -0 -0 -0 -0 -0 -0 -0 -0 -0
nan nan nan nan nan nan nan nan nan nan nan nan nan nan nan nan nan nan nan nan nan nan nan nan nan nan nan nan nan nan nan nan nan nan nan nan nan nan nan nan nan nan nan nan nan nan nan nan nan nan nan nan nan nan nan nan nan -0 -0 -0 -0 -0 -0 -0 -0 -0 -0 -0 -0 -0 -0 -0 -0 -0 -0 -0 -0 -0 -0 -0 -0 -0 -0 -0 -0 -0
nan nan nan nan nan nan nan nan nan nan nan nan nan nan nan nan nan nan nan nan nan nan nan nan nan nan nan nan nan nan nan nan nan nan nan nan nan nan nan nan nan nan nan nan nan nan nan nan nan nan nan nan nan nan nan nan nan -0 -0 -0 -0 -0 -0 -0 -0 -0 -0 -0 -0 -0 -0 -0 -0 -0 -0 -0 -0 -0 -0 -0 -0 -0 -0 -0 -0 -0
nan nan nan nan nan nan nan nan nan nan nan nan nan nan nan nan nan nan nan nan nan nan nan nan nan nan nan nan nan nan nan nan nan nan nan nan nan nan nan nan nan nan nan nan nan nan nan nan nan nan nan nan nan nan nan nan nan -0 -0 -0 -0 -0 -0 -0 -0 -0 -0 -0 -0 -0 -0 -0 -0 -0 -0 -0 -0 -0 -0 -0 -0 -0 -0 -0 -0 -0
nan nan nan nan nan nan nan nan nan nan nan nan nan nan nan nan nan nan nan nan nan nan nan nan nan nan nan nan nan nan nan nan nan nan nan nan nan nan nan nan nan nan nan nan nan nan nan nan nan nan nan nan nan nan nan nan nan nan nan -0 -0 -0 -0 -0 -0 -0 -0 -0 -0 -0 -0 -0 -0 -0 -0 -0 -0 -0 -0 -0 -0 -0 -0 -0 -0 -0
nan nan nan nan nan nan nan nan nan nan nan nan nan nan nan nan nan nan nan nan nan nan nan nan nan nan nan nan nan nan nan nan nan nan nan nan nan nan nan nan nan nan nan nan nan nan nan nan nan nan nan nan nan nan nan nan nan nan nan -0 -0 -0 -0 -0 -0 -0 -0 -0 -0 -0 -0 -0 -0 -0 -0 -0 -0 -0 -0 -0 -0 -0 -0 -0 -0 -0
nan nan nan nan nan nan nan nan nan nan nan nan nan nan nan nan nan nan nan nan nan nan nan nan nan nan nan nan nan nan nan nan nan nan nan nan nan nan nan nan nan nan nan nan nan nan nan nan nan nan nan nan nan nan nan nan nan nan nan -0 -0 -0 -0 -0 -0 -0 -0 -0 -0 -0 -0 -0 -0 -0 -0 -0 -0 -0 -0 -0 -0 -0 -0 -0 -0 -0
nan nan nan nan nan nan nan nan nan nan nan nan nan nan nan nan nan nan nan nan nan nan nan nan nan nan nan nan nan nan nan nan nan nan nan nan nan nan nan nan nan nan nan nan nan nan nan nan nan nan nan nan nan nan nan nan nan nan nan -0 -0 -0 -0 -0 -0 -0 -0 -0 -0 -0 -0 -0 -0 -0 -0 -0 -0 -0 -0 -0 -0 -0 -0 -0 -0 -0
nan nan nan nan nan nan nan nan nan nan nan nan nan nan nan nan nan nan nan nan nan nan nan nan nan nan nan nan nan nan nan nan nan nan nan nan nan nan nan nan nan nan nan nan nan nan nan nan nan nan nan nan nan nan nan nan nan nan -0 -0 -0 -0 -0 -0 -0 -0 -0 -0 -0 -0 -0 -0 -0 -0 -0 -0 -0 -0 -0 -0 -0 -0 -0 -0 -0 -0
nan nan nan nan nan nan nan nan nan nan nan nan nan nan nan nan nan nan nan nan nan nan nan nan nan nan nan nan nan nan nan nan nan nan nan nan nan nan nan nan nan nan nan nan nan nan nan nan nan nan nan nan nan nan nan nan nan nan -0 -0 -0 -0 -0 -0 -0 -0 -0 -0 -0 -0 -0 -0 -0 -0 -0 -0 -0 -0 -0 -0 -0 -0 -0 -0 -0 -0
nan nan nan nan nan nan nan nan nan nan nan nan nan nan nan nan nan nan nan nan nan nan nan nan nan nan nan nan nan nan nan nan nan nan nan nan nan nan nan nan nan nan nan nan nan nan nan nan nan nan nan nan nan nan nan nan nan nan -0 -0 -0 -0 -0 -0 -0 -0 -0 -0 -0 -0 -0 -0 -0 -0 -0 -0 -0 -0 -0 -0 -0 -0 -0 -0 -0 -0
-0 -0 -0 -0 -0 -0 -0 -0 nan nan nan nan nan nan nan nan nan nan nan nan nan nan nan nan nan nan nan nan nan nan nan nan nan nan nan nan nan nan nan nan nan nan nan nan nan nan nan nan nan nan nan nan nan nan nan nan nan nan nan nan nan -0 -0 -0 -0 -0 -0 -0 -0 -0 -0 -0 -0 -0 -0 -0 -0 -0 -0 -0 -0 -0 -0 -7 -7 nan
-0 -0 nan nan nan nan nan nan nan nan nan nan -0 -0 nan nan nan nan nan nan nan nan nan nan nan nan nan nan nan nan nan nan nan nan nan nan nan nan nan nan nan nan nan nan nan nan nan nan nan nan nan nan nan nan nan nan nan nan nan nan nan nan nan nan nan -0 -0 -0 -0 -0 -0 -0 -0 -0 -0 -0 -0 -0 -0 -0 -0 -0 -0 nan nan nan
nan nan nan nan nan nan nan nan nan nan nan nan nan nan nan nan nan nan nan nan nan nan nan nan nan nan nan nan nan nan nan nan nan nan nan nan nan nan nan nan nan nan nan nan nan nan nan nan nan nan nan nan nan nan nan nan nan nan nan nan nan nan nan -0 -0 -0 -0 -0 -0 -0 -0 -0 -0 -0 -0 -0 -0 -0 -0 -0 -0 -0 nan nan nan nan
nan nan nan nan nan nan nan nan nan nan nan nan nan nan nan nan nan nan nan nan nan nan nan nan nan nan nan nan nan nan nan nan nan nan nan nan nan nan nan nan nan nan nan nan nan nan nan nan nan nan nan nan nan nan nan nan nan nan nan nan nan nan nan -0 -0 -0 -0 -0 -0 -0 -0 -0 -0 -0 -0 -0 -0 -0 -0 -0 -0 -0 nan nan nan nan
nan nan nan nan nan nan nan nan nan nan nan nan nan nan nan nan nan nan nan nan nan nan nan nan nan nan nan nan nan nan nan nan nan nan nan nan nan nan nan nan nan nan nan nan nan nan nan nan nan nan nan nan nan nan nan nan nan nan nan nan nan nan nan nan nan nan nan nan nan nan -0 -0 -0 -0 -0 -0 -0 -0 -0 -0 -0 -0 nan nan nan nan
nan nan nan nan nan nan nan nan nan nan nan nan nan nan nan nan nan nan nan nan nan nan nan nan nan nan nan nan nan nan nan nan nan nan nan nan nan nan nan nan nan nan nan nan nan nan nan nan nan nan nan nan nan nan nan nan nan nan nan nan nan nan nan nan nan nan nan nan nan nan nan nan -2 -2 -0 -0 -0 -0 -0 -0 -0 -0 -10 nan nan nan
nan nan nan nan nan nan nan nan nan nan nan nan nan nan nan nan nan nan nan nan nan nan nan nan nan nan nan nan nan nan nan nan nan nan nan nan nan nan nan nan nan nan nan nan nan nan nan nan nan nan nan nan nan nan nan nan nan nan nan nan nan nan nan nan nan nan nan nan nan nan nan nan nan nan nan -4 -0 -0 -0 -0 -0 -0 -0 nan nan nan
nan nan nan nan nan nan nan nan nan nan nan nan nan nan nan nan nan nan nan nan nan nan nan nan nan nan nan nan nan nan nan nan nan nan nan nan nan nan nan nan nan nan nan nan nan nan nan nan nan nan nan nan nan nan nan nan nan nan nan nan nan nan nan nan nan nan nan nan nan nan nan nan nan nan nan nan -0 -0 -0 -0 -0 -0 -0 -0 -0 -14
nan nan nan nan nan nan nan nan nan nan nan nan nan nan nan nan nan nan nan nan nan nan nan nan nan nan nan nan nan nan nan nan nan nan nan nan nan nan nan nan nan nan nan nan nan nan nan nan nan nan nan nan nan nan nan nan nan nan nan nan nan nan nan nan nan nan nan nan nan nan nan nan nan nan nan nan -0 -0 -0 -0 -0 -0 -0 -0 -0 -0
nan nan nan nan nan nan nan nan nan nan nan nan nan nan nan nan nan nan nan nan nan nan nan nan nan nan nan nan nan nan nan nan nan nan nan nan nan nan nan nan nan nan nan nan nan nan nan nan nan nan nan nan nan nan nan nan nan nan nan nan nan nan nan nan nan nan nan nan nan nan nan nan nan nan nan nan nan nan nan -3 -3 -3 -0 -0 -0 -0
nan nan nan nan nan nan nan nan nan nan nan nan nan nan nan nan nan nan nan nan nan nan nan nan nan nan nan nan nan nan nan nan nan nan nan nan nan nan nan nan nan nan nan nan nan nan nan nan nan nan nan nan nan nan nan nan nan nan nan nan nan nan nan nan nan nan nan nan nan nan nan nan nan nan nan nan nan nan nan nan nan nan nan nan nan -0
nan nan nan nan nan nan nan nan nan nan nan nan nan nan nan nan nan nan nan nan nan nan nan nan nan nan nan nan nan nan nan nan nan nan nan nan nan nan nan nan nan nan nan nan nan nan nan nan nan nan nan nan nan nan nan nan nan nan nan nan nan nan nan nan nan nan nan nan nan nan nan nan nan nan nan nan nan nan nan nan nan nan nan nan nan nan
nan nan nan nan nan nan nan nan nan nan nan nan nan nan nan nan nan nan nan nan nan nan nan nan nan nan nan nan nan nan nan nan nan nan nan nan nan nan nan nan nan nan nan nan nan nan nan nan nan nan nan nan nan nan nan nan nan nan nan nan nan nan nan nan nan nan nan nan nan nan nan nan nan nan nan nan nan nan nan nan nan nan nan nan nan nan
nan nan nan nan nan nan nan nan nan nan nan nan nan nan nan nan nan nan nan nan nan nan nan nan nan nan nan nan nan nan nan nan nan nan nan nan nan nan nan nan nan nan nan nan nan nan nan nan nan nan nan nan nan nan nan nan nan nan -0 nan nan nan nan nan nan nan nan nan nan nan nan nan nan nan nan nan nan nan nan nan nan nan nan nan nan nan
nan nan nan nan nan nan nan nan nan nan nan nan nan nan nan nan nan nan nan nan nan nan nan nan nan nan nan nan nan nan nan nan nan nan nan nan nan nan nan nan nan nan nan nan nan nan nan nan nan nan nan nan nan nan nan nan nan nan nan nan nan nan nan nan nan nan nan nan nan nan nan nan nan nan nan nan nan nan nan nan nan nan nan nan nan nan
nan nan nan nan nan nan nan nan nan nan nan nan nan nan nan nan nan nan nan nan nan nan nan nan nan nan nan nan nan nan nan nan nan nan nan nan nan nan nan nan nan nan nan nan nan nan nan nan nan nan nan nan nan nan nan nan nan nan nan nan nan nan nan nan nan nan nan nan nan nan nan nan nan nan nan nan nan nan nan nan nan nan nan nan nan nan
nan nan nan nan nan nan nan nan nan nan nan nan nan nan nan nan nan nan nan nan nan nan nan nan nan nan nan nan nan nan nan nan nan nan nan nan nan nan nan nan nan nan nan nan nan nan nan nan nan nan nan nan nan nan nan nan nan nan nan nan nan nan nan nan nan nan nan nan nan nan nan nan nan nan nan nan nan nan nan nan nan nan nan nan nan nan
nan nan nan nan nan nan nan nan nan nan nan nan nan nan nan nan nan nan nan nan nan nan nan nan nan nan nan nan nan nan nan nan nan nan nan nan nan nan nan nan nan nan nan nan nan nan nan nan nan nan nan nan nan nan nan nan nan nan nan nan nan nan nan nan nan nan nan nan nan nan nan nan nan nan nan nan nan nan nan nan nan nan nan nan nan nan
nan nan nan nan nan nan nan nan nan nan nan nan nan nan nan nan nan nan nan nan nan nan nan nan nan nan nan nan nan nan nan nan nan nan nan nan nan nan nan nan nan nan nan nan nan nan nan nan nan nan nan nan nan nan nan nan nan nan nan nan nan nan nan nan nan nan nan nan nan nan nan nan nan nan nan nan nan nan nan nan nan nan nan nan nan nan
nan nan nan nan nan nan nan nan nan nan nan nan nan nan nan nan nan nan nan nan nan nan nan nan nan nan nan nan nan nan nan nan nan nan nan nan nan nan nan nan nan nan nan nan nan nan nan nan nan nan nan nan nan nan nan nan nan nan nan nan nan nan nan nan nan nan nan nan nan nan nan nan nan nan nan nan nan nan nan nan nan nan nan nan nan nan
nan nan nan nan nan nan nan nan nan nan nan nan nan nan nan nan nan nan nan nan nan nan nan nan nan nan nan nan nan nan nan nan nan nan nan nan nan nan nan nan nan nan nan nan nan nan nan nan nan nan nan nan nan nan nan nan nan nan nan nan nan nan nan nan nan nan nan nan nan nan nan nan nan nan nan nan nan nan nan nan nan nan nan nan nan nan
nan nan nan nan nan nan nan nan nan nan nan nan nan nan nan nan nan nan nan nan nan nan nan nan nan nan nan nan nan nan nan nan nan nan nan nan nan nan nan nan nan nan nan nan nan nan nan nan nan nan nan nan nan nan nan nan nan nan nan nan nan nan nan nan nan nan nan nan nan nan nan nan nan nan nan nan nan nan nan nan nan nan nan nan nan nan
nan nan nan nan nan nan nan nan nan nan nan nan nan nan nan nan nan nan nan nan nan nan nan nan nan nan nan nan nan nan nan nan nan nan nan nan nan nan nan nan nan nan nan nan nan nan -7 -2 -2 -0 -0 -2 nan nan nan nan nan nan nan nan nan nan nan nan nan nan nan nan nan nan nan nan nan nan nan nan nan nan nan nan nan nan nan nan nan nan
nan nan nan nan nan nan nan nan nan nan nan nan nan nan nan nan nan nan nan nan nan nan nan nan nan nan nan nan nan nan nan nan nan nan nan nan nan nan nan nan nan nan nan nan nan nan nan nan nan nan nan -0 -2 -2 nan nan nan nan nan nan nan nan nan nan nan nan nan nan nan nan nan nan nan nan nan nan nan nan nan nan nan nan nan nan nan nan
Wind_Speed
2 2 2 3 3 2 2 2 3 2 1 1 1 1 1 1 1 1 1 1 2 2 2 2 2 2 3 3 4 5 5 5 6 6 6 7 7 7 6 6 6 6 6 6 6 6 6 6 6 6 7 7 7 7 7 7 7 7 7 7 7 7 7 7 6 6 6 6 6 5 5 5 5 4 4 4 3 3 3 3 3 4 5 5 6 6
2 2 2 2 2 2 2 2 2 2 2 1 1 1 1 1 1 1 1 1 1 2 2 2 2 2 2 2 3 5 5 5 6 6 6 6 6 6 5 5 5 5 5 5 5 5 5 5 5 5 6 6 6 6 7 7 7 7 7 7 7 7 7 6 6 6 6 6 6 5 5 5 5 5 4 4 4 4 4 4 4 5 5 6 6 7
2 2 2 2 2 2 2 1 1 1 2 1 1 0 0 1 1 1 1 1 1 1 2 2 2 2 2 2 2 4 5 5 5 5 5 5 5 5 4 4 4 4 4 4 4 4 5 5 5 5 5 5 6 6 6 6 6 6 6 6 6 6 6 6 6 5 5 5 5 5 5 5 5 5 5 5 5 5 5 5 5 5 6 6 6 7
2 2 2 2 2 1 1 1 1 1 1 1 0 0 0 0 0 1 1 1 1 2 1 2 2 2 1 1 2 3 4 5 5 5 4 4 4 4 3 3 3 4 4 4 4 5 5 5 5 6 6 6 6 6 6 6 6 6 6 6 6 6 6 5 5 5 4 4 4 4 4 4 5 5 5 5 5 5 5 5 6 6 6 6 7 7
2 2 2 2 1 1 1 1 1 1 1 1 1 1 1 0 0 1 1 1 2 2 1 1 2 2 1 1 1 1 3 4 4 4 3 3 3 3 3 3 3 4 4 5 5 6 6 6 6 6 6 6 6 6 6 6 6 6 6 6 6 6 6 5 5 5 4 4 4 4 4 4 4 5 5 5 5 6 6 6 6 6 6 7 7 7
2 2 2 1 1 1 0 0 1 1 1 1 1 1 1 1 1 1 1 2 2 2 1 1 2 2 1 1 0 1 2 3 3 3 3 3 2 2 3 3 4 4 5 6 6 6 6 7 7 7 6 6 6 6 6 6 6 6 6 6 5 5 6 5 5 5 5 5 4 4 4 4 4 4 5 5 5 6 6 6 7 7 7 7 7 7
2 1 1 1 1 1 0 0 1 1 1 1 1 2 2 2 2 2 2 2 1 1 1 1 2 2 3 3 2 2 2 3 3 3 3 3 3 3 3 4 5 5 6 6 6 6 6 7 7 7 6 6 6 6 6 6 6 6 6 5 5 5 5 5 5 5 5 5 5 5 5 4 4 4 4 5 5 6 6 7 7 7 7 7 7 8
2 1 1 1 1 1 1 1 0 1 1 1 1 1 1 2 2 2 2 2 2 2 2 2 2 2 3 3 3 3 2 2 3 3 3 3 3 4 4 5 5 5 5 5 6 6 7 7 7 7 6 6 5 5 6 6 6 5 5 5 5 5 5 5 5 5 5 5 5 5 5 5 5 5 5 5 5 6 6 7 7 7 8 8 7 7
3 2 1 1 1 1 0 1 1 0 1 1 1 1 1 1 1 2 2 3 3 2 2 2 1 2 2 3 3 3 2 1 1 1 2 2 2 3 4 5 5 5 5 5 5 6 7 7 7 6 6 5 5 5 5 5 5 5 5 5 4 4 5 5 5 5 5 5 5 5 5 5 5 5 5 5 5 6 6 7 7 7 7 7 7 7
3 2 2 1 1 1 1 0 1 1 0 1 1 2 2 2 1 1 2 2 2 2 2 2 1 1 2 3 3 2 2 2 2 3 4 4 4 4 4 5 4 4 4 5 5 6 7 7 7 6 5 5 5 4 4 4 4 4 4 4 4 4 4 4 5 5 5 5 5 5 5 5 6 6 6 6 6 6 6 6 6 6 6 7 7 7
2 2 2 1 0 0 1 1 0 0 0 1 2 2 2 1 2 2 2 1 2 2 2 2 1 1 1 2 3 3 2 2 3 4 6 6 7 7 7 6 5 5 5 5 6 7 7 7 6 6 5 4 4 4 3 4 4 4 4 4 4 4 4 4 4 4 4 5 5 5 5 6 6 6 6 6 6 6 6 6 6 6 6 6 7 7
2 1 1 1 1 1 1 0 1 1 1 2 2 2 2 1 1 2 3 2 0 1 2 2 2 1 1 1 2 2 2 2 2 3 4 5 5 5 5 5 5 5 5 5 6 6 7 7 6 6 5 4 4 3 3 3 3 4 5 5 5 5 5 4 4 4 4 4 5 5 5 5 5 6 6 6 6 6 6 5 5 5 5 6 6 7
2 1 1 1 1 1 1 1 1 1 1 1 1 1 1 1 0 1 2 1 1 0 1 2 2 2 1 1 1 1 1 1 1 2 3 3 3 3 2 3 3 3 3 3 4 4 5 6 6 6 5 4 4 3 3 3 4 4 5 5 6 6 6 5 5 5 5 5 5 5 5 5 5 5 5 5 5 5 5 5 5 5 5 6 6 6
1 1 2 1 1 1 1 1 1 1 0 1 1 2 2 1 1 1 2 1 0 1 0 1 1 2 2 1 1 1 1 1 1 2 2 2 2 1 1 1 2 2 2 2 2 3 4 4 4 4 5 4 3 3 3 3 4 5 6 6 6 6 6 6 6 6 5 5 5 5 5 5 5 5 4 5 5 5 5 5 4 4 5 5 6 6
2 2 2 2 1 1 0 1 1 1 1 1 1 1 1 1 1 2 2 1 0 1 1 2 2 2 2 2 1 1 1 1 2 2 2 3 2 1 0 1 1 2 1 1 2 3 3 2 2 2 3 3 3 3 4 4 5 6 6 6 6 7 7 7 7 6 6 6 6 6 6 6 5 5 4 4 5 5 5 5 5 5 5 5 6 6
2 2 2 2 1 1 1 1 1 2 1 1 1 1 2 1 1 1 2 1 1 1 3 3 3 3 3 3 2 1 1 2 2 1 2 3 2 1 1 1 1 2 2 1 2 2 2 2 1 2 3 4 5 6 6 5 6 6 6 6 6 7 7 7 7 7 7 7 7 7 6 6 6 6 5 5 5 5 5 5 5 5 5 5 5 6
2 2 2 2 1 1 1 1 1 1 1 1 1 1 2 2 1 1 2 2 1 2 2 2 1 1 2 3 2 1 1 2 2 1 1 2 3 2 1 1 0 1 2 2 2 2 2 2 2 2 3 5 6 7 6 6 6 6 6 6 7 7 7 7 7 7 7 7 7 7 7 7 7 6 6 6 6 6 6 6 6 6 6 6 6 6
1 2 2 2 2 1 1 1 1 1 1 1 1 1 1 1 1 2 2 2 2 2 2 2 2 1 1 2 2 2 1 2 2 1 1 2 3 2 1 1 1 0 1 2 2 2 2 2 2 2 4 6 7 7 6 6 6 5 6 6 7 7 7 7 7 7 7 7 7 7 7 7 7 7 7 7 6 6 6 6 6 6 6 6 6 6
1 1 2 2 2 2 1 1 1 1 2 2 2 2 1 1 1 1 1 2 2 2 2 2 2 2 2 2 3 2 1 2 2 1 1 2 3 2 2 1 1 1 1 2 2 2 2 2 3 4 6 7 7 7 6 6 5 5 6 6 6 7 6 6 6 6 6 6 6 7 7 7 7 7 7 7 7 7 7 7 7 7 7 7 7 7
2 1 2 3 3 2 1 1 1 2 3 3 3 3 2 1 1 1 1 1 1 1 2 2 2 2 2 3 3 2 1 2 2 2 1 2 3 3 2 1 1 1 2 3 3 2 2 2 3 4 6 7 7 7 6 5 5 5 6 6 6 6 6 6 6 5 5 5 6 6 6 7 7 7 7 7 8 8 8 7 7 7 7 7 7 7
2 1 2 2 3 3 2 1 2 2 3 4 4 3 2 2 1 1 1 1 1 1 1 1 2 3 3 3 3 2 2 2 2 1 0 1 2 3 1 1 1 1 2 3 3 2 1 2 2 3 5 6 7 6 5 4 5 5 5 6 6 6 6 6 6 6 6 6 5 5 5 6 6 6 6 7 7 8 8 8 8 7 7 7 7 7
2 2 2 2 3 3 3 2 2 2 3 4 4 4 3 2 2 1 1 1 2 2 2 2 3 3 2 3 3 2 2 3 3 2 1 1 2 3 2 0 1 0 1 2 2 2 1 2 2 3 5 7 7 5 4 4 4 5 5 5 5 5 6 6 6 7 7 7 6 6 6 6 6 6 6 6 7 7 8 8 7 7 7 7 7 7
3 2 2 2 2 2 3 3 2 2 2 4 4 4 3 3 3 3 3 3 3 3 3 2 2 2 1 2 2 1 1 2 2 3 2 0 2 3 2 1 1 0 2 2 2 2 2 2 2 3 5 7 6 5 4 4 4 4 5 5 5 5 5 6 6 7 7 7 7 7 7 7 7 6 7 7 7 7 7 7 7 7 7 7 7 8
4 3 3 3 3 3 3 3 2 2 2 3 3 3 2 3 3 3 3 3 3 2 1 0 1 2 2 2 2 1 1 0 2 3 3 1 2 3 2 1 1 1 2 2 2 2 2 2 2 2 3 6 6 5 4 4 4 5 5 5 5 6 6 6 6 7 7 7 7 7 7 7 7 7 7 7 7 7 7 7 7 7 7 7 8 8
4 4 4 4 5 5 5 4 4 4 3 3 3 3 3 3 3 3 3 2 2 2 2 3 2 2 2 2 2 2 2 1 1 2 3 1 1 2 2 0 0 1 3 3 2 1 2 2 2 2 2 4 5 6 5 6 6 6 6 6 6 6 6 7 7 7 7 7 7 7 7 8 8 8 8 8 8 8 8 8 8 8 8 8 8 9
6 6 6 7 8 9 9 8 7 7 7 5 4 3 3 3 3 3 3 2 2 3 3 3 1 1 2 2 2 3 2 1 1 2 2 2 1 2 2 1 0 1 3 3 2 2 2 2 2 3 3 4 5 7 8 8 8 8 8 8 8 7 7 7 7 7 7 7 7 7 7 8 8 8 8 8 9 9 9 9 9 9 9 9 9 9
8 8 9 9 9 9 9 8 8 8 7 7 6 5 4 4 3 3 2 1 1 3 3 2 0 1 2 2 2 3 2 1 1 1 2 2 1 1 2 1 0 1 2 3 2 2 2 2 2 3 3 3 4 6 9 10 10 10 10 10 9 8 8 8 8 8 8 7 7 7 8 8 8 8 8 9 9 9 9 9 10 10 9 9 7 6
7 7 7 7 6 6 6 6 5 4 4 4 5 5 5 4 3 1 1 1 2 3 3 2 1 1 1 2 2 3 2 2 1 0 2 2 1 1 2 1 1 1 2 2 2 2 2 2 2 2 3 3 3 4 8 10 11 11 11 11 10 9 8 8 8 8 8 8 8 8 8 8 8 8 8 8 9 9 9 9 10 10 9 6 3 2
5 5 5 5 5 4 4 3 2 1 1 1 2 2 3 4 3 3 3 2 3 3 2 2 2 2 2 2 2 2 2 2 1 1 2 2 1 1 2 1 1 1 1 2 2 2 3 2 1 1 2 3 3 3 5 7 8 9 10 11 11 10 9 8 8 8 8 8 9 9 9 9 9 9 9 8 8 9 9 9 9 8 6 3 2 1
3 3 3 2 3 3 3 2 1 1 2 2 2 1 3 3 3 3 3 3 3 3 2 2 2 2 1 0 1 2 3 3 2 1 3 2 1 1 1 1 1 1 1 1 2 2 3 2 2 2 2 3 3 3 4 4 5 5 6 8 8 9 9 9 9 9 9 9 9 9 9 9 9 9 9 9 9 8 8 9 8 6 2 1 1 1
2 1 1 2 3 3 2 2 1 1 2 2 2 1 2 3 3 3 3 4 4 3 3 3 2 2 2 1 0 1 2 3 2 1 3 2 1 1 1 0 1 1 0 1 2 1 2 3 3 2 2 2 3 3 4 3 3 3 3 4 5 6 8 9 9 9 9 9 10 10 10 10 10 10 9 9 9 9 8 8 7 5 1 0 0 1
1 1 0 1 2 2 2 2 1 1 1 1 1 1 2 2 3 3 3 4 4 4 3 3 3 2 2 2 2 2 2 3 2 2 3 2 1 1 1 1 0 1 0 1 2 2 1 2 2 2 2 3 3 3 4 3 3 2 2 2 3 4 7 8 8 8 8 9 9 10 10 10 10 10 10 10 9 9 9 9 7 5 1 0 1 2
1 1 1 1 2 2 2 1 1 1 1 1 1 0 1 2 3 3 3 3 4 4 4 3 3 2 2 2 2 2 2 3 3 2 3 3 2 1 1 1 1 0 1 1 2 2 2 1 1 2 3 2 2 3 3 3 2 1 1 2 2 3 5 5 5 5 6 6 7 8 9 10 10 10 10 10 10 9 9 9 8 6 3 1 2 2
1 1 1 1 2 2 1 1 1 1 1 1 1 1 1 1 2 3 3 3 4 4 4 4 4 3 3 2 2 2 3 3 3 1 3 3 2 2 1 1 1 1 1 1 1 1 1 1 1 2 2 2 2 2 2 2 2 1 1 1 1 2 3 3 3 4 4 4 4 5 6 7 8 9 9 9 9 9 9 9 9 8 7 3 2 2
1 1 1 1 1 1 1 1 1 1 1 2 2 2 2 2 2 2 3 3 4 4 4 4 4 4 4 3 2 2 3 3 2 1 2 3 2 2 1 1 1 2 2 1 1 1 0 1 1 2 2 3 2 2 2 2 2 2 1 1 2 2 2 2 2 2 3 3 3 3 3 4 4 5 6 8 8 9 9 9 9 9 9 7 5 3
1 1 1 1 1 1 1 2 2 2 2 3 3 2 2 2 3 3 3 3 4 4 4 4 4 4 4 4 4 3 3 3 2 1 2 2 3 3 2 1 2 2 2 2 1 1 0 1 2 2 3 2 2 2 2 2 2 2 2 2 2 3 3 2 2 1 1 2 3 3 3 3 3 4 5 7 8 9 10 10 10 10 10 9 8 7
0 0 1 1 1 1 1 1 2 2 3 3 3 3 3 3 3 3 3 3 3 3 3 3 3 3 3 3 4 3 3 2 2 1 1 2 3 3 2 2 2 2 3 2 2 1 0 1 2 2 2 2 2 2 2 3 2 2 3 3 3 3 3 3 2 1 1 2 2 3 3 3 3 3 4 7 8 8 9 10 10 10 10 10 10 9
0 1 1 1 1 1 1 1 2 2 3 3 3 3 3 3 3 2 2 2 2 3 3 2 2 2 3 3 3 3 3 3 3 3 2 3 3 3 2 2 2 2 3 3 3 2 1 1 2 2 2 2 2 3 3 3 3 3 3 3 3 3 3 3 2 1 1 2 3 4 4 3 3 3 3 4 4 4 5 5 6 7 8 8 9 10
1 2 2 2 2 2 2 2 3 3 3 3 2 2 2 1 1 1 1 1 1 1 1 2 1 1 2 2 2 3 3 3 4 4 3 3 3 3 3 2 2 2 2 2 2 2 1 1 1 2 2 2 2 3 2 2 2 2 3 3 3 2 2 2 2 2 2 2 3 3 4 3 2 2 2 2 2 2 3 3 4 4 4 4 5 7
2 2 2 2 2 2 3 3 3 2 1 1 1 1 2 1 1 1 1 1 1 1 1 1 1 0 0 1 1 2 2 3 3 4 4 3 3 3 3 3 3 2 2 2 2 2 2 2 2 2 3 2 3 3 3 2 2 3 4 3 2 2 2 2 2 2 2 2 2 2 2 2 2 2 2 2 2 2 2 2 2 2 2 1 2 3
2 2 2 2 2 2 2 2 1 1 0 1 1 2 1 1 1 1 1 1 2 1 1 1 1 1 2 2 1 2 2 2 3 4 3 4 4 4 4 4 3 3 2 2 2 2 2 2 2 3 3 3 4 4 4 3 4 5 6 4 3 3 3 3 3 2 1 2 2 2 2 3 3 3 3 3 3 3 3 2 2 2 2 1 1 1
2 2 2 2 2 1 1 1 1 1 1 1 1 1 1 1 1 1 1 1 1 1 1 2 1 2 3 3 3 3 2 3 3 4 4 5 5 5 4 4 4 3 3 2 2 2 2 2 3 3 3 3 3 4 4 4 4 4 4 3 4 4 4 4 2 1 1 2 2 2 3 3 3 3 3 3 3 3 3 3 3 3 3 2 1 2
2 2 2 2 1 1 1 1 1 1 1 1 1 0 1 1 1 2 2 1 1 0 0 1 1 1 1 2 3 3 3 3 3 3 4 5 5 5 5 5 4 4 3 2 2 2 2 3 3 3 3 3 3 4 5 4 4 4 3 3 3 3 3 2 2 1 1 2 3 3 2 3 3 3 3 3 3 2 2 3 4 5 4 3 2 2
2 2 1 1 1 0 1 1 1 1 1 1 0 1 1 1 1 2 2 2 1 1 1 1 2 1 0 1 2 3 3 3 3 2 3 4 5 5 5 5 5 4 4 3 2 2 2 3 3 3 3 3 3 4 5 5 4 4 3 3 3 3 3 3 2 2 2 3 3 3 2 2 3 3 3 3 2 2 2 2 3 3 3 3 3 3
1 1 1 0 0 0 0 0 0 0 1 0 1 1 1 1 1 1 2 2 1 1 1 2 2 1 1 1 2 2 2 3 3 3 2 3 5 6 5 5 4 4 4 3 3 3 2 2 2 2 2 3 4 5 5 5 5 4 4 4 4 4 4 4 3 3 3 3 3 3 3 2 2 2 3 3 3 3 3 3 3 3 4 3 4 4
1 0 0 0 0 0 1 1 0 0 0 1 1 1 1 1 1 1 2 2 2 1 1 2 2 1 1 1 1 1 1 2 3 3 3 2 2 3 4 4 4 4 3 3 4 4 3 3 3 2 2 3 4 5 5 5 5 5 4 4 4 4 4 4 3 3 3 3 3 3 3 2 2 2 3 3 3 3 3 3 3 4 4 4 4 4
1 1 1 1 1 1 1 1 0 0 0 1 1 1 1 1 1 1 1 2 2 2 2 2 1 2 2 1 1 1 0 1 2 3 3 2 1 1 3 4 4 4 4 4 4 4 4 4 4 4 3 4 4 5 5 5 5 5 4 4 3 3 3 3 3 3 3 3 3 3 2 2 2 2 3 4 4 4 3 3 4 4 4 4 4 4
2 2 2 2 1 1 1 1 0 0 1 1 2 2 1 1 2 2 1 2 2 2 2 1 1 1 2 2 1 1 1 1 2 2 2 2 1 1 2 3 3 3 3 4 4 5 5 5 5 5 5 5 5 5 5 5 4 4 4 3 3 4 4 4 3 3 3 3 3 3 2 2 3 4 4 4 4 4 4 3 4 4 4 4 4 4
3 3 2 2 2 2 2 1 1 1 2 2 2 2 2 2 3 3 2 2 2 2 3 2 2 2 2 2 2 2 2 2 2 2 2 2 1 1 2 2 3 2 2 3 3 4 5 6 7 7 7 7 6 6 6 5 4 4 3 3 3 4 4 4 4 3 3 3 4 4 4 3 4 4 4 4 5 5 5 4 4 3 3 3 3 3
3 3 3 3 3 3 2 2 2 2 2 2 2 2 1 1 1 1 1 2 2 3 3 3 3 3 3 2 2 2 2 2 1 2 2 2 1 1 1 2 2 2 2 2 2 3 3 4 5 7 9 10 9 8 7 6 5 4 3 3 3 3 4 4 4 3 3 4 4 4 4 3 3 3 3 4 5 6 6 5 4 4 3 3 3 3
3 3 3 3 3 3 3 3 3 3 3 2 2 2 1 1 1 1 0 1 2 2 3 3 3 3 4 3 3 2 2 2 2 2 2 2 1 1 2 2 2 2 2 1 2 2 2 2 2 4 6 10 12 11 7 6 4 3 3 3 3 3 3 4 4 4 4 4 4 4 3 3 3 3 3 3 4 6 7 6 5 4 3 3 3 3
Wind_Direction
131 138 141 130 119 113 123 131 134 136 149 226 287 311 340 345 345 359 35 77 106 122 119 95 63 40 29 55 80 96 105 108 110 110 107 102 98 93 87 82 76 70 64 58 51 46 39 33 28 23 18 14 10 6 2 359 357 356 355 355 356 357 358 1 3 7 11 17 22 24 25 26 25 23 16 7 358 354 354 355 353 349 345 341 337 333
129 133 136 126 116 112 123 128 130 135 152 191 231 291 336 337 342 359 25 56 98 124 127 111 89 59 23 25 71 97 104 106 106 106 103 100 95 90 84 77 70 62 54 47 40 33 26 20 15 10 5 1 358 355 352 349 348 346 345 345 345 346 348 352 355 359 3 10 12 12 11 9 8 3 357 348 342 341 345 347 345 342 338 335 332 329
141 137 138 123 116 118 132 149 152 149 158 177 197 232 356 342 343 354 22 53 83 109 119 115 103 85 43 14 62 94 101 102 103 101 99 95 90 84 76 67 57 46 37 28 20 12 5 360 355 351 348 345 343 341 340 338 337 336 335 334 334 335 336 339 343 347 353 357 360 360 358 356 353 349 345 341 339 340 343 345 342 338 334 330 327 324
144 141 141 123 115 122 143 167 175 170 150 156 159 94 73 44 351 342 12 71 90 97 98 100 102 98 77 20 43 82 99 100 99 96 92 87 81 72 62 49 36 24 12 3 356 350 344 341 338 335 333 332 330 329 329 329 328 327 325 325 323 323 322 324 326 329 334 338 340 341 341 340 338 337 337 338 339 339 339 338 336 332 329 325 322 319
142 138 135 120 116 129 163 170 153 124 81 60 42 32 35 30 357 341 7 70 87 94 88 73 78 87 92 50 49 85 102 100 96 91 85 78 68 56 40 24 10 359 350 345 340 336 334 332 330 327 326 325 324 324 325 324 323 321 319 317 315 314 311 311 311 311 313 315 317 318 319 321 323 326 329 332 334 333 332 330 328 325 322 320 318 315
138 129 121 116 121 135 167 130 101 90 67 37 24 20 19 7 2 11 29 61 79 87 77 48 36 38 38 7 10 105 103 97 92 87 78 65 50 31 10 356 347 340 336 334 333 332 332 331 329 328 327 326 327 328 329 327 326 323 319 315 313 310 307 305 303 302 301 301 301 302 303 305 309 315 319 323 325 325 324 322 321 318 317 315 314 313
128 103 90 93 95 98 81 47 81 96 94 63 28 16 9 3 8 14 23 40 57 69 65 39 24 17 14 358 357 21 68 70 68 63 54 39 21 4 349 340 335 332 330 331 332 334 336 335 333 332 332 333 336 338 339 336 333 329 324 320 315 311 307 304 301 299 297 296 295 296 296 296 299 302 307 312 315 317 317 316 314 313 311 311 310 309
124 93 69 79 75 56 22 3 41 105 122 120 96 47 12 3 2 3 3 12 25 39 62 47 30 17 8 360 2 12 35 46 46 39 35 22 8 354 343 337 333 330 329 332 336 339 341 340 339 338 339 344 348 350 351 347 343 337 332 327 321 316 311 307 304 301 299 297 296 296 295 294 294 295 297 301 304 307 308 308 308 307 307 307 306 304
124 117 96 101 105 101 63 327 319 334 124 137 134 130 118 43 4 356 1 5 11 19 45 58 47 18 352 351 354 360 11 48 58 50 42 26 2 349 346 344 339 333 330 337 342 346 346 343 342 343 348 354 359 2 2 357 352 347 341 336 330 324 318 313 310 307 305 302 299 297 296 294 293 293 294 295 297 298 299 299 300 301 302 303 302 300
110 116 116 116 122 131 136 189 279 309 356 103 116 122 130 126 101 48 23 1 354 358 24 60 74 44 334 339 341 346 354 20 32 35 35 21 11 5 2 359 351 342 341 347 350 351 348 345 344 346 353 0 7 10 12 6 360 354 349 345 339 331 325 319 314 310 307 303 300 297 295 294 293 292 291 291 290 290 290 291 294 296 300 300 300 298
103 108 115 112 87 83 121 158 189 281 27 59 57 54 61 94 112 114 104 30 341 344 359 25 54 59 340 335 338 345 2 13 13 13 15 11 9 8 7 5 2 360 360 359 357 354 349 346 346 349 355 1 6 11 13 6 360 354 351 347 341 334 328 321 315 310 306 301 297 294 292 291 289 288 287 286 284 284 285 287 291 295 298 299 298 296
124 125 117 118 100 59 43 36 15 18 45 59 54 38 10 3 80 121 126 137 105 333 340 346 356 10 358 336 334 341 13 23 9 356 356 359 1 4 5 4 5 7 8 6 0 354 349 347 346 348 352 356 358 1 5 356 349 344 343 340 336 332 327 322 316 311 306 301 296 292 288 285 284 282 281 281 281 281 283 286 290 293 293 293 293 293
122 120 105 96 90 82 70 50 34 28 39 73 105 133 192 294 20 106 115 129 153 276 321 339 342 339 326 316 322 344 29 31 9 350 348 344 346 352 360 356 354 356 1 2 354 346 344 345 344 343 345 346 347 346 342 333 330 330 330 330 329 327 323 320 316 312 307 303 298 293 288 284 282 280 279 280 281 282 283 285 286 287 286 288 290 292
103 93 87 84 81 82 96 101 101 102 104 152 164 170 181 182 102 88 89 87 348 286 327 14 355 335 320 322 326 353 65 56 22 358 347 326 319 323 359 346 332 333 349 355 339 325 328 343 344 338 336 338 337 329 314 312 314 318 321 323 322 321 319 315 312 308 304 302 299 296 294 290 286 283 281 282 282 283 283 283 283 284 285 287 291 294
117 107 105 116 133 156 159 138 139 153 192 196 181 156 119 75 67 76 87 89 17 342 27 33 15 347 322 308 311 349 70 75 49 14 339 312 301 292 78 358 330 326 347 351 321 308 316 339 336 321 318 314 304 294 292 294 306 313 317 320 320 318 316 311 307 303 299 297 296 295 295 292 288 284 280 280 281 281 281 281 281 282 284 286 289 293
122 117 125 143 166 199 212 168 155 160 185 194 161 114 97 80 73 83 101 111 78 43 50 43 22 353 325 310 312 8 73 82 78 44 333 304 297 296 98 59 347 327 331 325 298 293 307 320 315 297 291 289 292 297 304 304 310 316 320 322 322 320 316 310 305 300 295 292 290 289 290 288 286 283 278 275 275 275 276 277 278 278 278 279 281 284
116 116 128 138 161 209 233 195 163 155 160 141 101 94 104 116 117 114 111 111 89 71 72 84 75 359 315 310 312 333 82 96 98 83 349 300 293 292 95 102 12 302 307 298 284 279 291 302 304 292 277 282 292 302 311 313 316 320 326 327 325 321 316 310 305 299 294 290 287 285 284 284 282 281 277 273 271 270 270 272 273 273 273 272 273 275
118 128 132 140 161 193 210 189 154 134 126 108 90 79 76 89 100 106 108 111 108 105 108 117 135 165 205 275 283 286 96 112 106 83 4 305 296 299 20 90 114 254 291 286 279 271 271 276 279 284 291 303 309 313 316 317 321 326 331 330 328 323 317 311 305 299 294 290 287 284 282 280 280 279 278 275 271 268 267 267 267 268 269 269 269 270
142 150 143 154 164 175 178 174 162 152 140 139 127 110 79 56 62 77 90 108 124 135 141 145 161 181 186 230 253 261 163 121 107 82 4 302 295 304 354 40 53 8 299 281 273 269 267 270 278 291 307 318 321 320 320 322 328 334 336 333 330 326 322 317 311 304 297 292 288 284 281 279 278 277 277 276 274 270 267 266 265 266 267 268 270 271
149 169 169 160 150 141 131 196 189 173 160 148 128 112 103 85 70 71 84 97 116 129 136 145 170 199 208 234 252 259 196 109 94 77 358 291 290 298 337 29 41 359 308 283 272 267 271 275 287 300 311 317 321 323 325 331 337 340 340 337 335 333 331 328 324 317 309 299 292 287 282 279 277 276 275 275 275 273 269 267 265 265 266 268 270 272
140 184 210 167 144 134 145 195 204 183 153 127 111 100 103 98 89 88 114 115 113 110 111 145 190 209 206 227 244 243 183 119 101 85 26 307 295 294 311 35 57 18 308 286 277 272 276 278 278 286 300 314 321 327 334 343 347 346 344 342 341 341 339 339 336 331 325 319 311 302 294 289 284 281 278 277 276 274 272 270 269 268 268 270 271 273
138 179 215 184 156 143 148 173 183 170 139 118 112 114 127 126 132 148 170 153 147 152 168 197 210 212 201 226 239 235 172 137 129 126 100 347 301 290 294 4 65 32 291 280 279 283 287 279 274 282 299 316 324 333 345 351 352 350 348 348 346 344 342 341 339 336 335 332 328 323 318 310 303 297 291 286 282 280 278 276 275 274 274 275 275 276
131 155 188 183 163 141 133 142 151 149 127 119 126 138 151 150 156 166 176 170 170 176 189 206 220 233 237 248 257 260 169 142 132 123 110 132 277 281 293 336 37 343 273 270 278 289 301 287 277 283 299 319 328 338 352 355 355 351 350 348 345 342 339 337 336 335 334 332 330 328 325 320 315 309 304 299 294 289 286 284 282 281 279 279 279 279
120 132 148 148 139 126 120 127 132 128 110 110 120 135 149 149 152 156 163 160 157 155 157 102 359 341 316 300 299 308 335 67 106 110 113 170 247 266 288 339 7 309 274 267 273 289 304 292 285 288 302 323 332 342 353 356 354 350 348 344 340 337 334 333 332 330 329 328 326 324 321 317 314 310 307 304 300 296 293 290 286 284 281 279 278 278
122 128 132 134 132 129 126 130 131 128 117 112 114 120 127 122 116 109 99 96 93 86 67 48 26 354 325 325 320 313 314 339 81 110 120 158 248 270 283 315 331 283 277 276 279 289 303 299 302 311 325 334 342 349 358 359 355 351 347 342 338 335 333 332 331 330 329 327 324 321 319 314 311 308 305 303 300 298 296 293 289 286 283 281 280 279
131 136 139 138 135 133 130 130 130 129 126 126 126 127 122 104 87 69 51 53 64 72 67 54 23 324 307 314 306 300 301 325 50 109 126 134 233 283 288 301 289 278 283 288 293 304 315 312 318 327 337 340 346 353 1 2 358 353 348 343 340 337 335 335 334 334 333 330 327 324 321 317 313 310 306 303 300 298 296 294 292 289 287 285 285 285
127 131 134 133 131 129 127 128 128 129 131 136 141 140 124 99 78 58 20 28 81 93 94 93 38 296 306 302 287 283 292 315 353 107 124 116 121 282 286 298 319 305 294 294 298 311 329 329 331 332 335 332 339 352 3 2 359 354 349 345 341 339 338 337 338 338 337 335 332 329 325 321 317 313 309 305 302 299 296 294 292 291 290 289 290 296
116 119 119 119 119 118 118 121 125 132 141 152 157 153 131 110 104 120 230 194 129 111 114 136 169 226 267 271 274 278 292 298 286 183 123 105 115 257 271 289 318 319 302 299 305 321 343 342 335 327 324 325 335 351 1 360 356 352 348 344 341 338 337 338 339 340 340 339 336 333 329 325 321 317 313 309 305 302 299 296 294 292 292 296 308 341
93 102 104 102 102 102 100 98 102 126 188 220 218 186 132 124 139 169 197 166 133 119 130 158 175 190 217 254 284 299 308 293 271 195 117 103 129 252 267 294 323 329 319 323 331 341 348 336 321 312 311 326 340 353 355 354 352 349 345 342 340 339 339 341 342 343 342 340 338 335 332 328 325 322 318 314 310 306 302 299 296 295 296 307 330 353
48 64 70 55 54 60 66 60 37 330 284 277 278 282 99 124 147 165 170 149 137 136 154 170 178 181 186 274 333 327 312 293 271 175 116 113 158 256 276 309 325 332 8 26 10 353 334 316 304 297 298 325 340 349 347 345 345 344 344 341 341 342 345 348 348 347 345 342 339 336 333 330 328 325 323 320 316 313 309 305 301 299 303 339 3 326
24 30 12 359 12 24 37 37 17 340 311 307 323 21 86 121 142 153 151 145 144 148 159 168 174 170 156 123 88 311 292 279 261 170 119 125 166 224 230 286 305 305 55 94 77 22 319 308 305 307 313 329 340 345 341 335 338 345 350 345 344 346 351 353 353 351 347 343 339 336 333 331 329 327 325 323 320 317 314 310 307 306 321 17 307 283
22 38 19 359 4 15 22 22 14 359 341 341 4 55 111 138 148 153 153 153 151 151 155 160 165 166 160 154 166 200 245 259 245 192 127 126 144 187 175 160 235 306 315 112 121 132 218 290 300 312 329 338 340 336 327 326 333 353 2 355 345 341 347 350 351 349 344 341 338 335 333 331 330 328 326 323 321 319 317 314 312 311 319 244 239 255
34 23 9 5 6 11 15 16 8 353 331 308 284 244 165 159 160 162 163 161 156 152 150 155 158 161 163 170 187 212 238 255 245 208 143 125 125 150 167 135 114 28 351 60 110 133 155 219 279 307 324 329 326 320 311 315 331 3 20 5 341 329 334 340 342 340 335 335 333 332 331 330 329 328 327 325 322 320 317 315 312 310 305 255 223 238
53 29 10 3 359 359 359 4 353 322 286 265 249 235 209 186 173 169 169 168 164 160 157 157 159 161 162 170 203 238 256 262 255 213 130 119 123 137 147 125 119 106 59 42 54 84 136 212 266 302 312 314 310 301 295 303 320 344 3 344 323 315 318 326 327 325 323 326 326 324 324 324 325 325 325 323 321 319 316 314 312 309 309 293 260 235
67 41 9 2 351 342 330 324 311 287 265 253 243 231 212 196 185 178 175 174 174 172 170 166 164 163 162 165 184 221 247 252 256 226 113 116 123 129 127 146 148 137 107 94 70 50 349 279 282 296 309 312 309 301 291 293 305 316 307 307 307 302 299 305 311 316 319 321 316 311 310 312 315 317 317 319 319 319 319 318 316 314 313 309 302 285
63 13 328 326 315 295 288 285 279 270 259 250 241 228 214 202 194 187 180 178 178 179 180 179 173 168 162 162 171 192 222 232 239 226 110 121 125 127 132 174 170 150 129 132 135 141 228 283 291 300 310 310 307 302 297 301 311 320 318 315 309 302 293 292 295 305 315 313 309 303 301 302 303 304 307 317 322 325 327 326 324 321 318 315 311 306
79 281 277 262 242 237 251 261 259 254 249 245 237 226 213 206 200 194 185 177 175 177 180 184 185 182 177 167 171 184 204 201 194 174 134 132 129 131 143 177 179 164 146 151 158 170 196 287 300 304 304 288 282 287 297 311 322 328 320 310 303 298 296 298 302 305 289 293 294 295 295 297 299 303 307 318 326 332 334 333 330 327 323 319 316 312
183 244 259 248 228 215 224 238 241 237 231 228 224 216 206 202 197 192 181 169 164 165 170 176 186 194 196 186 184 184 185 171 167 167 158 144 135 133 145 165 184 183 165 160 160 162 173 279 295 296 289 266 265 274 290 305 313 312 300 293 289 288 289 299 303 302 283 288 293 296 299 302 306 310 313 323 334 341 339 333 328 327 325 323 319 316
207 230 245 238 223 209 210 223 228 229 224 219 209 192 171 163 154 135 116 123 132 143 153 158 171 187 201 203 202 198 187 174 169 168 162 153 146 143 148 161 182 196 187 166 156 154 166 221 256 270 279 280 283 285 291 294 295 295 295 298 298 296 290 294 295 294 286 292 300 304 307 308 312 315 311 321 333 338 328 317 314 316 323 326 321 317
209 223 237 234 222 210 210 220 227 233 233 214 125 95 93 88 74 55 43 51 62 76 91 104 114 142 224 239 234 226 213 191 178 169 162 163 161 157 157 168 177 184 182 169 161 162 176 213 240 255 265 278 287 291 291 288 290 296 307 312 312 308 303 298 291 287 286 285 290 294 297 298 301 302 301 302 300 295 287 281 285 289 297 300 310 314
204 221 238 241 235 227 225 232 244 274 350 57 65 68 79 86 84 70 44 32 26 25 37 49 34 8 342 327 297 266 243 226 207 193 179 177 173 170 169 175 176 173 168 170 173 176 189 213 237 252 258 267 276 281 282 282 290 297 304 304 299 294 294 292 289 288 294 286 277 273 282 293 300 302 298 293 280 264 251 247 252 262 270 240 217 240
209 219 230 238 246 256 275 306 335 13 50 65 76 89 122 133 128 120 100 43 353 348 16 43 39 5 338 325 317 304 279 250 230 216 202 190 184 179 178 180 176 171 164 171 182 193 199 216 234 246 252 259 269 275 278 279 283 286 289 289 293 296 296 291 290 292 300 288 282 281 289 293 294 291 287 282 273 264 254 244 251 263 274 253 214 202
217 222 228 234 249 273 315 343 3 38 59 61 67 100 198 171 150 142 139 154 205 257 25 73 83 73 322 308 308 309 303 284 259 236 218 201 191 185 183 180 175 168 165 174 189 206 213 225 236 243 243 250 261 270 277 282 282 279 275 278 290 300 305 293 290 287 276 280 283 284 285 280 274 270 270 268 266 262 260 264 271 275 280 265 248 236
216 227 240 251 269 311 348 358 15 46 65 72 105 255 251 216 167 147 141 156 173 178 120 95 92 89 63 286 292 298 302 302 299 284 245 214 198 187 180 175 171 169 169 177 187 199 215 229 237 240 238 247 257 264 271 276 279 278 271 268 268 268 267 277 287 296 296 293 292 287 276 273 274 278 283 279 276 270 263 262 265 268 268 259 253 250
205 228 262 288 345 21 6 309 336 34 65 159 233 242 241 210 178 162 155 158 165 161 139 111 96 82 307 277 279 289 301 308 316 317 303 234 206 192 177 170 171 176 181 184 185 189 203 223 234 240 242 247 253 259 264 269 274 276 274 269 265 260 255 265 276 285 288 289 286 280 269 268 279 291 297 291 283 274 265 261 261 262 262 259 256 254
171 211 269 298 310 219 232 233 239 34 353 264 257 251 237 198 175 174 173 164 163 163 158 127 126 145 229 252 270 292 312 316 320 325 330 307 226 190 175 173 177 183 188 193 194 196 202 211 221 230 241 248 250 252 254 259 265 270 272 272 270 268 267 268 268 266 266 272 275 274 268 270 281 290 290 288 283 277 267 258 255 255 256 256 254 253
203 219 232 231 229 227 235 226 186 96 272 265 262 257 242 182 165 172 186 172 164 155 147 126 139 171 209 225 229 235 281 300 307 312 319 322 291 200 177 181 187 192 193 200 204 208 211 213 216 223 234 247 253 255 253 252 254 259 265 268 269 270 271 268 262 256 251 257 264 269 274 282 287 286 282 284 283 281 274 262 254 249 249 248 247 247
211 215 221 219 223 231 246 235 199 203 242 259 265 266 253 209 194 191 190 179 170 163 155 149 169 201 223 229 222 209 209 239 267 282 290 291 265 215 188 185 188 194 200 208 214 218 221 220 220 221 226 238 250 258 259 253 250 250 256 261 266 268 270 267 262 254 248 252 255 256 260 268 274 279 283 286 287 284 280 272 263 254 249 245 243 242
207 211 214 213 215 222 230 222 209 209 229 248 263 273 276 254 230 216 192 178 173 172 175 184 196 213 232 240 236 228 221 230 245 260 266 260 242 210 188 182 180 185 200 214 222 227 231 230 226 223 224 230 241 252 259 256 252 248 251 255 258 262 267 268 266 261 255 254 254 253 250 254 261 268 280 286 288 289 289 285 279 270 264 253 246 243
207 209 209 208 213 218 222 215 210 214 224 234 246 260 279 285 264 227 187 176 177 180 184 189 197 208 226 233 235 231 226 232 242 254 260 255 231 193 181 175 172 174 191 210 223 231 237 238 234 231 228 228 231 239 251 254 254 252 250 250 248 250 256 263 264 261 256 257 257 256 252 256 260 264 271 278 284 288 292 291 289 286 285 278 273 270
213 212 210 210 214 218 219 212 211 213 219 224 230 240 257 276 285 272 201 187 189 191 193 192 196 206 220 228 230 226 219 220 229 242 252 252 230 197 188 181 175 176 188 214 228 233 236 251 260 256 245 233 228 227 235 240 245 248 251 247 241 236 239 252 257 258 257 259 260 260 257 259 261 262 261 272 282 289 292 292 291 290 292 295 296 296